Year,Month,Day,Hour,Minute,Value (Times are PST for temperature in C)
2011,02,24,11,08,-2.00
2011,02,24,11,09,-2.00
2011,02,24,11,10,-2.00
2011,02,24,11,11,-2.00
2011,02,24,11,12,-1.90
2011,02,24,11,13,-1.90
2011,02,24,11,14,-1.90
2011,02,24,11,15,-2.00
2011,02,24,11,16,-2.00
2011,02,24,11,17,-2.10
2011,02,24,11,18,-2.10
2011,02,24,11,19,-2.00
2011,02,24,11,20,-2.00
2011,02,24,11,21,-2.00
2011,02,24,11,22,-2.00
2011,02,24,11,23,-2.10
2011,02,24,11,24,-2.10
2011,02,24,11,25,-2.10
2011,02,24,11,26,-2.00
2011,02,24,11,27,-2.00
2011,02,24,11,28,-2.00
2011,02,24,11,29,-1.90
2011,02,24,11,30,-1.90
2011,02,24,11,31,-1.90
2011,02,24,11,32,-1.90
2011,02,24,11,33,-1.90
2011,02,24,11,34,-1.90
2011,02,24,11,35,-1.90
2011,02,24,11,36,-1.90
2011,02,24,11,37,-1.90
2011,02,24,11,38,-1.90
2011,02,24,11,39,-1.90
2011,02,24,11,40,-2.00
2011,02,24,11,41,-2.00
2011,02,24,11,42,-2.00
2011,02,24,11,43,-2.00
2011,02,24,11,44,-2.00
2011,02,24,11,45,-2.00
2011,02,24,11,46,-2.00
2011,02,24,11,47,-2.00
2011,02,24,11,48,-2.00
2011,02,24,11,49,-2.00
2011,02,24,11,50,-2.00
2011,02,24,11,51,-2.00
2011,02,24,11,52,-2.00
2011,02,24,11,53,-2.00
2011,02,24,11,54,-2.00
2011,02,24,11,55,-2.00
2011,02,24,11,56,-2.00
2011,02,24,11,57,-2.00
2011,02,24,11,58,-1.90
2011,02,24,11,59,-2.00
2011,02,24,12,00,-2.00
2011,02,24,12,01,-2.00
2011,02,24,12,02,-2.00
2011,02,24,12,03,-1.90
2011,02,24,12,04,-1.90
2011,02,24,12,05,-1.90
2011,02,24,12,06,-1.80
2011,02,24,12,07,-1.80
2011,02,24,12,08,-1.80
2011,02,24,12,09,-1.80
2011,02,24,12,10,-1.90
2011,02,24,12,11,-1.90
2011,02,24,12,12,-1.90
2011,02,24,12,13,-2.00
2011,02,24,12,14,-2.00
2011,02,24,12,15,-2.00
2011,02,24,12,16,-2.10
2011,02,24,12,17,-2.10
2011,02,24,12,18,-2.10
2011,02,24,12,19,-2.10
2011,02,24,12,20,-2.00
2011,02,24,12,21,-2.10
2011,02,24,12,22,-2.10
2011,02,24,12,23,-2.10
2011,02,24,12,24,-2.00
2011,02,24,12,25,-2.00
2011,02,24,12,26,-2.00
2011,02,24,12,27,-1.90
2011,02,24,12,28,-1.80
2011,02,24,12,29,-1.80
2011,02,24,12,30,-1.80
2011,02,24,12,31,-1.80
2011,02,24,12,32,-1.80
2011,02,24,12,33,-1.80
2011,02,24,12,34,-1.80
2011,02,24,12,35,-1.80
2011,02,24,12,36,-1.80
2011,02,24,12,37,-1.80
2011,02,24,12,38,-1.80
2011,02,24,12,39,-1.80
2011,02,24,12,40,-1.80
2011,02,24,12,41,-1.70
2011,02,24,12,42,-1.70
2011,02,24,12,43,-1.70
2011,02,24,12,44,-1.70
2011,02,24,12,45,-1.70
2011,02,24,12,46,-1.70
2011,02,24,12,47,-1.80
2011,02,24,12,48,-1.80
2011,02,24,12,49,-1.80
2011,02,24,12,50,-1.70
2011,02,24,12,51,-1.70
2011,02,24,12,52,-1.70
2011,02,24,12,53,-1.60
2011,02,24,12,54,-1.60
2011,02,24,12,55,-1.60
2011,02,24,12,56,-1.60
2011,02,24,12,57,-1.50
2011,02,24,12,58,-1.50
2011,02,24,12,59,-1.40
2011,02,24,13,00,-1.40
2011,02,24,13,01,-1.30
2011,02,24,13,02,-1.30
2011,02,24,13,03,-1.20
2011,02,24,13,04,-1.20
2011,02,24,13,05,-1.10
2011,02,24,13,06,-1.10
2011,02,24,13,07,-1.10
2011,02,24,13,08,-1.20
2011,02,24,13,09,-1.20
2011,02,24,13,10,-1.20
2011,02,24,13,11,-1.30
2011,02,24,13,12,-1.30
2011,02,24,13,13,-1.30
2011,02,24,13,14,-1.30
2011,02,24,13,15,-1.30
2011,02,24,13,16,-1.40
2011,02,24,13,17,-1.40
2011,02,24,13,18,-1.40
2011,02,24,13,19,-1.40
2011,02,24,13,20,-1.40
2011,02,24,13,21,-1.40
2011,02,24,13,22,-1.40
2011,02,24,13,23,-1.40
2011,02,24,13,24,-1.40
2011,02,24,13,25,-1.30
2011,02,24,13,26,-1.30
2011,02,24,13,27,-1.30
2011,02,24,13,28,-1.40
2011,02,24,13,29,-1.40
2011,02,24,13,30,-1.40
2011,02,24,13,31,-1.40
2011,02,24,13,32,-1.40
2011,02,24,13,33,-1.40
2011,02,24,13,34,-1.40
2011,02,24,13,35,-1.40
2011,02,24,13,36,-1.40
2011,02,24,13,37,-1.40
2011,02,24,13,38,-1.40
2011,02,24,13,39,-1.40
2011,02,24,13,40,-1.40
2011,02,24,13,41,-1.40
2011,02,24,13,42,-1.40
2011,02,24,13,43,-1.40
2011,02,24,13,44,-1.40
2011,02,24,13,45,-1.40
2011,02,24,13,46,-1.40
2011,02,24,13,47,-1.40
2011,02,24,13,48,-1.40
2011,02,24,13,49,-1.40
2011,02,24,13,50,-1.40
2011,02,24,13,51,-1.40
2011,02,24,13,52,-1.40
2011,02,24,13,53,-1.40
2011,02,24,13,54,-1.40
2011,02,24,13,55,-1.40
2011,02,24,13,56,-1.40
2011,02,24,13,57,-1.40
2011,02,24,13,58,-1.30
2011,02,24,13,59,-1.30
2011,02,24,14,00,-1.30
2011,02,24,14,01,-1.30
2011,02,24,14,02,-1.20
2011,02,24,14,03,-1.20
2011,02,24,14,04,-1.20
2011,02,24,14,05,-1.20
2011,02,24,14,06,-1.20
2011,02,24,14,07,-1.20
2011,02,24,14,08,-1.20
2011,02,24,14,09,-1.20
2011,02,24,14,10,-1.10
2011,02,24,14,11,-1.10
2011,02,24,14,12,-1.20
2011,02,24,14,13,-1.20
2011,02,24,14,14,-1.20
2011,02,24,14,15,-1.20
2011,02,24,14,16,-1.20
2011,02,24,14,17,-1.20
2011,02,24,14,18,-1.10
2011,02,24,14,19,-1.10
2011,02,24,14,20,-1.20
2011,02,24,14,21,-1.20
2011,02,24,14,22,-1.10
2011,02,24,14,23,-1.10
2011,02,24,14,24,-1.10
2011,02,24,14,25,-1.10
2011,02,24,14,26,-1.10
2011,02,24,14,27,-1.10
2011,02,24,14,28,-1.10
2011,02,24,14,29,-1.10
2011,02,24,14,30,-1.10
2011,02,24,14,31,-1.10
2011,02,24,14,32,-1.10
2011,02,24,14,33,-1.10
2011,02,24,14,34,-1.10
2011,02,24,14,35,-1.10
2011,02,24,14,36,-1.10
2011,02,24,14,37,-1.00
2011,02,24,14,38,-1.00
2011,02,24,14,39,-0.90
2011,02,24,14,40,-0.90
2011,02,24,14,41,-0.90
2011,02,24,14,42,-0.90
2011,02,24,14,43,-0.90
2011,02,24,14,44,-0.90
2011,02,24,14,45,-0.90
2011,02,24,14,46,-0.90
2011,02,24,14,47,-0.90
2011,02,24,14,48,-0.90
2011,02,24,14,49,-0.90
2011,02,24,14,50,-0.90
2011,02,24,14,51,-0.90
2011,02,24,14,52,-0.90
2011,02,24,14,53,-0.90
2011,02,24,14,54,-0.80
2011,02,24,14,55,-0.80
2011,02,24,14,56,-0.80
2011,02,24,14,57,-0.80
2011,02,24,14,58,-0.70
2011,02,24,14,59,-0.70
2011,02,24,15,00,-0.80
2011,02,24,15,01,-0.80
2011,02,24,15,02,-0.80
2011,02,24,15,03,-0.90
2011,02,24,15,04,-0.90
2011,02,24,15,05,-0.90
2011,02,24,15,06,-0.90
2011,02,24,15,07,-0.90
2011,02,24,15,08,-0.90
2011,02,24,15,09,-0.90
2011,02,24,15,10,-0.80
2011,02,24,15,11,-0.80
2011,02,24,15,12,-0.80
2011,02,24,15,13,-0.80
2011,02,24,15,14,-0.70
2011,02,24,15,15,-0.70
2011,02,24,15,16,-0.70
2011,02,24,15,17,-0.70
2011,02,24,15,18,-0.70
2011,02,24,15,19,-0.70
2011,02,24,15,20,-0.70
2011,02,24,15,21,-0.70
2011,02,24,15,22,-0.80
2011,02,24,15,23,-0.80
2011,02,24,15,24,-0.80
2011,02,24,15,25,-0.80
2011,02,24,15,26,-0.80
2011,02,24,15,27,-0.80
2011,02,24,15,28,-0.80
2011,02,24,15,29,-0.80
2011,02,24,15,30,-0.80
2011,02,24,15,31,-0.80
2011,02,24,15,32,-0.80
2011,02,24,15,33,-0.80
2011,02,24,15,34,-0.80
2011,02,24,15,35,-0.80
2011,02,24,15,36,-0.90
2011,02,24,15,37,-0.90
2011,02,24,15,38,-0.90
2011,02,24,15,39,-0.90
2011,02,24,15,40,-0.90
2011,02,24,15,41,-0.90
2011,02,24,15,42,-0.80
2011,02,24,15,43,-0.80
2011,02,24,15,44,-0.70
2011,02,24,15,45,-0.70
2011,02,24,15,46,-0.70
2011,02,24,15,47,-0.70
2011,02,24,15,48,-0.80
2011,02,24,15,49,-0.80
2011,02,24,15,50,-0.80
2011,02,24,15,51,-0.80
2011,02,24,15,52,-0.90
2011,02,24,15,53,-0.90
2011,02,24,15,54,-0.90
2011,02,24,15,55,-0.90
2011,02,24,15,56,-0.80
2011,02,24,15,57,-0.80
2011,02,24,15,58,-0.80
2011,02,24,15,59,-0.80
2011,02,24,16,00,-0.80
2011,02,24,16,01,-0.70
2011,02,24,16,02,-0.80
2011,02,24,16,03,-0.80
2011,02,24,16,04,-0.80
2011,02,24,16,05,-0.80
2011,02,24,16,06,-0.80
2011,02,24,16,07,-0.80
2011,02,24,16,08,-0.80
2011,02,24,16,09,-0.80
2011,02,24,16,10,-0.80
2011,02,24,16,11,-0.80
2011,02,24,16,12,-0.80
2011,02,24,16,13,-0.80
2011,02,24,16,14,-0.80
2011,02,24,16,15,-0.80
2011,02,24,16,16,-0.90
2011,02,24,16,17,-0.90
2011,02,24,16,18,-0.90
2011,02,24,16,19,-0.90
2011,02,24,16,20,-0.90
2011,02,24,16,21,-0.90
2011,02,24,16,22,-0.90
2011,02,24,16,23,-0.90
2011,02,24,16,24,-0.90
2011,02,24,16,25,-0.90
2011,02,24,16,26,-0.90
2011,02,24,16,27,-0.90
2011,02,24,16,28,-0.90
2011,02,24,16,29,-0.90
2011,02,24,16,30,-0.90
2011,02,24,16,31,-0.90
2011,02,24,16,32,-0.90
2011,02,24,16,33,-0.90
2011,02,24,16,34,-0.90
2011,02,24,16,35,-0.90
2011,02,24,16,36,-0.80
2011,02,24,16,37,-0.80
2011,02,24,16,38,-0.80
2011,02,24,16,39,-0.90
2011,02,24,16,40,-0.90
2011,02,24,16,41,-0.90
2011,02,24,16,42,-0.90
2011,02,24,16,43,-0.90
2011,02,24,16,44,-0.90
2011,02,24,16,45,-0.90
2011,02,24,16,46,-0.90
2011,02,24,16,47,-0.90
2011,02,24,16,48,-0.90
2011,02,24,16,49,-0.90
